Wind_Speed
36 37 36 35 35 35 36 35 34 33 33 33 33 32 31 31 30 29 29 29 29 29 29 29 29 29 30 30 31 32 32 33 33 34 35 36 36 37 38 39 39 40 41 43
37 37 36 36 36 36 36 36 35 34 34 34 34 33 33 32 32 31 31 30 30 30 30 30 30 30 30 31 32 32 33 33 33 34 35 36 37 37 38 39 40 40 41 42
39 38 37 37 36 36 36 36 35 35 35 35 35 35 34 33 33 32 32 31 31 31 31 31 31 31 31 31 32 33 33 33 34 35 35 36 37 38 39 39 39 40 41 42
39 39 38 38 37 37 37 36 35 35 36 35 36 36 34 33 33 33 32 32 32 32 32 31 31 31 31 32 32 33 34 34 35 35 36 36 37 38 38 39 40 41 41 41
38 38 39 38 37 37 36 36 36 36 36 37 36 37 34 33 32 32 32 32 32 32 32 32 32 32 32 33 33 34 35 35 36 36 37 37 38 38 39 40 40 40 41 41
38 39 39 38 37 37 37 37 37 37 37 38 36 37 35 33 31 31 32 33 32 32 32 32 32 33 33 33 34 34 35 35 36 37 37 38 38 39 40 40 40 40 41 41
38 38 38 38 38 38 37 37 37 38 39 39 36 37 35 32 31 31 32 32 32 33 33 33 33 33 33 33 34 34 35 35 36 37 38 38 39 40 40 40 40 41 41 42
37 38 37 38 38 37 37 37 37 38 38 38 37 37 34 32 31 31 32 32 33 33 33 33 33 33 33 33 34 34 35 35 36 37 37 38 39 40 40 41 41 41 42 43
37 38 37 37 37 37 37 38 37 37 38 38 38 37 34 32 31 31 31 32 32 33 33 33 33 33 33 33 34 34 35 36 36 36 37 38 39 40 41 42 42 43 43 43
36 37 37 37 38 38 38 37 36 37 37 38 38 36 33 32 31 31 31 31 31 32 33 32 32 32 33 33 34 35 36 35 36 36 37 39 40 41 42 42 42 43 44 44
35 37 37 37 38 37 37 37 37 38 38 37 37 35 32 31 31 31 31 31 31 32 32 32 32 33 33 33 34 35 35 36 36 37 38 39 41 42 42 43 44 44 45 45
35 36 36 36 37 37 37 37 37 38 38 38 36 35 32 32 32 32 31 31 31 31 32 32 32 32 33 33 33 34 35 36 37 38 39 39 40 42 42 43 43 43 44 44
35 36 36 37 38 38 38 37 37 37 37 37 35 34 32 32 31 31 31 31 31 31 31 31 32 32 33 32 33 34 35 36 37 38 39 40 41 41 41 42 42 42 43 43
35 37 36 36 36 36 37 37 37 37 37 37 36 34 32 32 32 32 32 32 31 31 31 32 32 32 32 32 33 34 35 37 38 39 39 40 40 41 40 40 41 42 42 42
36 37 37 36 35 36 36 36 37 37 37 37 35 34 33 33 33 32 32 32 32 31 32 32 32 31 32 33 34 35 36 37 38 39 40 40 40 40 40 40 40 41 41 42
35 37 38 37 36 36 37 37 37 37 37 36 36 35 33 33 34 34 33 33 32 31 31 32 32 32 33 34 34 35 36 37 38 39 39 39 39 39 39 39 40 40 41 41
33 34 36 37 37 37 38 37 37 37 36 36 35 33 33 33 33 33 33 33 33 32 32 33 33 33 34 34 34 35 36 37 37 37 37 38 38 39 39 39 39 40 40 40
32 32 33 34 35 37 37 36 36 36 36 35 34 33 33 33 33 33 32 33 32 33 33 33 34 34 34 35 35 35 36 36 36 36 36 37 38 38 38 38 38 39 39 39
30 31 32 33 34 35 35 34 34 35 35 35 35 35 34 34 34 33 33 32 32 32 33 34 34 34 35 36 36 36 35 35 35 36 36 37 37 37 37 37 37 37 37 37
27 29 30 31 33 34 33 33 33 34 34 34 35 35 36 35 35 33 33 33 33 33 33 33 33 34 35 35 35 35 34 34 34 34 35 35 36 36 36 36 36 36 36 35
24 26 27 28 29 30 30 30 32 33 33 33 33 33 35 35 35 34 34 34 33 33 33 32 32 33 34 35 35 34 34 34 34 35 35 35 35 35 35 35 34 34 34 34
22 24 26 27 28 27 28 29 30 31 32 32 32 31 32 33 34 34 34 34 34 33 33 33 33 33 34 34 34 34 34 34 34 34 34 34 34 35 34 34 34 34 34 32
22 23 24 26 26 26 27 28 29 29 29 30 31 30 30 30 31 32 32 33 33 33 33 33 33 34 34 34 33 34 34 34 34 34 33 33 33 33 32 33 33 33 32 31
23 23 23 24 24 25 26 26 27 27 28 28 29 28 28 28 28 29 30 30 31 32 33 33 33 34 33 33 33 33 34 34 33 33 33 33 32 31 31 31 30 30 29 28
22 23 23 23 24 25 25 25 25 26 27 27 27 28 28 28 28 28 29 29 30 31 32 32 33 33 32 32 32 32 32 33 33 33 33 33 32 31 30 29 28 28 27 27
21 22 23 23 24 25 24 24 24 25 25 26 26 27 28 28 27 28 28 28 28 29 30 30 31 31 31 31 30 30 30 31 31 31 31 30 29 29 28 27 26 26 26 26
Wind_Direction
238 237 237 238 238 238 238 238 238 238 239 239 240 240 241 243 245 247 248 250 251 252 254 256 258 260 263 265 266 267 268 269 271 271 272 272 273 274 275 277 278 278 279 278
237 237 237 237 236 237 238 239 239 239 240 241 241 241 242 244 246 248 250 250 251 252 254 257 259 262 265 266 266 267 269 270 271 271 272 273 274 275 276 277 278 279 280 280
236 236 235 235 236 237 238 240 241 241 242 243 243 242 243 245 247 248 250 251 252 254 256 259 261 264 266 267 268 269 269 270 271 272 272 274 275 276 277 278 279 280 281 282
235 234 234 235 235 236 238 239 241 242 243 244 244 245 244 246 248 249 249 251 253 255 258 261 263 266 267 267 268 269 270 271 271 272 273 274 276 276 278 279 280 281 282 283
234 234 234 235 235 236 238 238 240 242 244 245 246 248 245 246 248 249 250 252 254 256 259 262 265 267 267 267 269 269 270 271 272 273 274 275 276 277 278 280 281 281 282 283
234 234 234 235 235 236 237 239 240 242 244 246 246 250 248 246 248 249 251 253 255 257 260 263 265 267 267 268 269 270 271 272 273 274 275 276 277 278 279 280 281 281 282 283
234 234 234 233 234 234 236 238 241 242 244 247 248 250 250 249 249 250 252 254 256 258 261 263 266 267 267 268 269 270 271 273 274 275 277 277 278 279 280 281 281 282 284 284
236 234 233 234 235 235 236 237 240 244 246 248 249 251 251 252 253 254 254 256 257 259 261 264 266 267 267 268 269 270 272 273 275 276 277 278 279 280 282 282 282 283 284 284
235 235 234 235 235 235 236 237 240 244 247 249 249 250 251 253 255 256 257 257 258 260 262 264 266 267 267 268 269 271 272 274 275 276 278 279 280 281 282 281 282 283 284 284
234 236 235 235 235 235 237 238 239 242 246 249 250 251 253 253 255 257 258 259 259 260 261 263 265 266 267 268 269 271 272 275 276 278 279 280 281 282 282 280 281 283 284 283
233 236 236 235 236 236 237 238 240 242 245 248 250 252 253 254 255 256 257 259 260 261 262 263 264 266 267 269 271 271 272 275 277 279 281 281 282 282 282 281 282 282 283 284
232 235 237 237 236 236 237 238 240 242 244 246 249 252 253 254 255 256 257 258 259 261 263 264 266 268 269 270 271 272 274 276 277 279 281 282 283 283 283 282 283 283 284 285
233 234 237 237 237 237 237 238 240 243 244 245 247 249 251 252 254 255 257 259 260 263 265 266 268 270 270 270 271 273 275 276 278 281 282 284 285 285 285 284 284 284 286 286
235 235 236 238 238 238 239 239 240 242 243 244 245 247 249 252 253 254 257 259 261 263 265 267 270 272 271 271 272 274 276 278 279 282 284 285 286 287 286 285 285 286 287 288
235 237 237 238 238 238 238 238 239 240 242 244 245 246 247 250 252 254 257 259 263 264 266 268 270 273 273 274 275 276 277 279 281 283 284 285 286 286 286 285 285 287 288 289
236 236 237 238 239 240 240 238 239 240 241 243 245 246 247 250 252 254 257 260 262 264 265 268 270 272 274 276 277 278 278 280 281 283 284 284 285 286 286 286 287 288 290 291
235 235 237 238 239 241 241 240 242 243 243 245 246 246 246 248 251 254 257 259 261 263 265 268 271 272 273 275 277 279 280 281 282 282 283 284 285 286 286 287 288 290 292 292
235 233 235 237 239 242 242 242 243 244 245 245 245 245 247 248 251 254 257 259 261 263 266 269 270 271 273 275 277 280 281 280 280 281 283 284 285 286 288 288 290 291 292 293
237 235 236 238 240 241 241 242 243 244 245 247 248 247 249 251 253 255 256 258 261 263 266 268 270 272 274 276 279 280 281 281 281 281 282 284 286 287 288 288 289 291 292 293
236 237 239 241 242 242 242 243 243 244 244 245 249 250 251 252 254 255 257 259 261 264 266 268 269 272 275 277 278 279 279 280 282 282 283 285 286 287 288 288 290 291 292 294
235 236 239 241 242 243 243 244 243 244 245 246 249 251 252 254 256 256 257 259 261 264 267 269 271 274 277 278 278 278 279 281 282 283 284 286 287 287 288 289 290 291 292 294
238 239 238 240 242 244 244 245 245 246 247 248 250 251 253 254 256 257 257 259 261 264 267 270 273 276 278 278 278 278 280 281 283 284 286 287 288 288 288 289 290 292 293 294
241 242 242 242 244 246 246 246 246 247 248 249 250 251 253 255 257 257 259 260 261 263 267 270 274 277 277 277 278 279 281 282 283 284 286 287 288 289 289 290 292 293 293 294
243 241 242 242 242 245 245 245 245 246 248 249 250 251 253 255 257 258 260 261 262 264 267 269 273 275 276 277 279 280 281 282 283 284 284 285 286 287 288 290 291 293 293 295
245 244 244 244 243 243 244 245 246 246 248 250 252 254 257 257 259 260 260 261 264 266 268 270 272 273 274 276 279 281 281 282 282 283 283 283 284 286 287 288 289 291 292 295
244 243 244 244 244 244 245 246 248 249 251 253 255 257 258 260 262 261 261 262 265 266 267 270 272 272 274 276 279 281 282 283 282 283 283 283 284 285 286 287 289 291 293 296
Height
5684 5689 5692 5696 5699 5702 5705 5708 5711 5714 5716 5718 5720 5723 5726 5727 5729 5731 5733 5734 5735 5736 5737 5737 5738 5739 5739 5739 5738 5738 5737 5737 5736 5736 5735 5735 5734 5733 5732 5731 5729 5727 5725 5722
5675 5680 5684 5686 5690 5693 5696 5699 5703 5706 5708 5710 5712 5715 5718 5720 5722 5724 5725 5726 5728 5728 5729 5730 5731 5731 5731 5730 5729 5729 5728 5728 5727 5727 5726 5725 5724 5723 5722 5720 5718 5716 5713 5711
5666 5671 5674 5677 5681 5684 5688 5692 5695 5697 5699 5701 5704 5707 5710 5712 5714 5716 5717 5718 5720 5721 5722 5722 5723 5723 5722 5721 5721 5720 5719 5719 5718 5717 5716 5715 5714 5713 5712 5710 5708 5706 5703 5700
5655 5661 5664 5668 5672 5675 5679 5683 5686 5688 5690 5693 5696 5698 5703 5704 5706 5708 5709 5711 5712 5713 5714 5714 5714 5714 5713 5713 5712 5711 5710 5709 5708 5708 5707 5706 5705 5703 5702 5700 5698 5695 5692 5689
5647 5651 5654 5659 5664 5667 5670 5674 5677 5679 5681 5684 5687 5689 5694 5696 5697 5700 5701 5702 5704 5704 5705 5705 5705 5705 5704 5703 5702 5701 5701 5700 5699 5698 5697 5695 5694 5693 5692 5689 5687 5684 5681 5679
5637 5641 5645 5649 5654 5657 5661 5665 5668 5670 5672 5675 5679 5680 5684 5688 5690 5692 5693 5694 5695 5696 5696 5696 5696 5696 5695 5694 5693 5692 5691 5690 5689 5688 5686 5685 5684 5683 5681 5679 5676 5674 5671 5668
5627 5631 5635 5640 5644 5648 5652 5656 5659 5660 5662 5666 5670 5671 5676 5679 5682 5683 5684 5685 5686 5687 5687 5687 5687 5687 5686 5685 5684 5683 5682 5681 5679 5678 5676 5675 5673 5672 5670 5668 5666 5663 5660 5657
5618 5623 5627 5631 5635 5639 5643 5647 5650 5653 5655 5658 5660 5662 5668 5670 5672 5673 5675 5676 5677 5678 5678 5678 5678 5677 5677 5676 5675 5674 5672 5671 5669 5668 5666 5664 5663 5661 5659 5657 5654 5652 5649 5646
5609 5613 5618 5622 5626 5630 5633 5636 5641 5643 5645 5648 5650 5654 5659 5661 5663 5664 5666 5667 5668 5669 5669 5669 5669 5668 5667 5666 5666 5664 5663 5662 5660 5658 5656 5654 5652 5650 5648 5645 5643 5640 5638 5635
5599 5603 5608 5612 5616 5620 5624 5628 5631 5633 5635 5638 5642 5646 5650 5653 5654 5656 5657 5658 5659 5660 5660 5660 5660 5659 5658 5657 5656 5655 5654 5652 5651 5648 5646 5644 5642 5639 5636 5634 5632 5629 5626 5623
5590 5594 5598 5602 5606 5611 5615 5619 5621 5624 5627 5630 5633 5639 5642 5643 5645 5647 5648 5649 5650 5651 5651 5651 5650 5650 5649 5648 5647 5646 5644 5643 5641 5639 5636 5634 5631 5628 5625 5623 5620 5617 5614 5611
5581 5585 5588 5593 5597 5601 5605 5609 5612 5616 5618 5621 5625 5632 5632 5634 5636 5637 5639 5640 5641 5641 5642 5642 5641 5641 5640 5639 5638 5636 5635 5633 5631 5629 5626 5623 5620 5617 5614 5611 5609 5606 5602 5599
5572 5576 5579 5583 5589 5592 5595 5599 5603 5606 5609 5612 5616 5623 5623 5625 5626 5628 5630 5631 5632 5632 5633 5633 5632 5631 5630 5629 5628 5627 5625 5623 5621 5618 5615 5612 5609 5606 5602 5600 5597 5595 5591 5588
5562 5566 5571 5575 5578 5583 5587 5590 5593 5596 5599 5603 5608 5613 5615 5616 5617 5619 5620 5621 5622 5623 5623 5623 5623 5622 5621 5620 5618 5617 5615 5613 5610 5608 5605 5602 5598 5595 5592 5589 5586 5583 5580 5577
5552 5556 5560 5565 5569 5573 5577 5580 5584 5587 5591 5595 5599 5602 5606 5606 5608 5609 5611 5612 5613 5614 5614 5614 5614 5613 5612 5610 5609 5607 5605 5602 5600 5597 5594 5591 5587 5584 5581 5578 5575 5573 5570 5567
5543 5547 5551 5555 5559 5563 5566 5570 5574 5578 5581 5585 5589 5593 5596 5597 5598 5600 5601 5603 5604 5605 5605 5605 5604 5604 5602 5600 5599 5597 5594 5592 5589 5586 5583 5580 5577 5574 5571 5568 5565 5562 5559 5556
5535 5539 5543 5547 5551 5553 5557 5562 5566 5569 5573 5576 5579 5584 5585 5587 5589 5590 5592 5593 5595 5595 5595 5595 5595 5594 5592 5591 5589 5587 5584 5582 5579 5576 5573 5570 5567 5564 5561 5558 5556 5553 5550 5546
5527 5530 5534 5538 5542 5545 5552 5554 5557 5560 5563 5566 5570 5573 5576 5578 5580 5581 5582 5583 5584 5585 5586 5586 5585 5584 5582 5581 5579 5576 5574 5571 5568 5566 5563 5560 5558 5555 5552 5549 5546 5543 5540 5537
5519 5523 5526 5530 5533 5536 5542 5545 5548 5550 5554 5557 5560 5563 5565 5568 5570 5572 5573 5574 5575 5576 5576 5575 5575 5574 5572 5571 5569 5566 5564 5561 5559 5556 5554 5551 5548 5546 5543 5540 5537 5534 5531 5528
5512 5515 5519 5522 5525 5529 5534 5536 5538 5542 5545 5548 5550 5553 5555 5558 5561 5563 5563 5564 5565 5565 5565 5565 5565 5564 5562 5561 5558 5557 5554 5552 5550 5547 5545 5542 5539 5536 5533 5531 5528 5525 5522 5519
5506 5508 5511 5514 5516 5520 5524 5527 5529 5534 5537 5539 5541 5543 5546 5548 5551 5553 5553 5554 5555 5555 5555 5555 5555 5554 5552 5550 5549 5547 5545 5543 5541 5538 5535 5533 5530 5527 5524 5522 5519 5516 5513 5510
5499 5502 5504 5507 5509 5515 5516 5518 5521 5524 5527 5529 5532 5534 5536 5538 5540 5541 5543 5544 5544 5545 5545 5545 5545 5544 5542 5540 5539 5537 5536 5534 5531 5529 5526 5524 5521 5518 5516 5513 5510 5508 5505 5502
5493 5496 5498 5501 5505 5506 5508 5510 5512 5515 5518 5520 5523 5525 5527 5529 5530 5532 5533 5534 5535 5535 5535 5535 5534 5533 5532 5530 5529 5528 5526 5524 5522 5520 5518 5515 5513 5510 5507 5505 5502 5499 5496 5493
5487 5489 5491 5494 5496 5498 5500 5502 5504 5507 5509 5512 5514 5517 5518 5520 5521 5522 5523 5524 5525 5526 5526 5525 5524 5524 5522 5521 5520 5518 5517 5515 5513 5511 5509 5506 5504 5502 5499 5496 5494 5491 5488 5486
5480 5482 5484 5486 5489 5491 5493 5495 5497 5499 5501 5504 5506 5508 5510 5511 5513 5514 5514 5515 5515 5516 5516 5515 5515 5514 5513 5512 5510 5509 5507 5505 5504 5502 5500 5498 5496 5494 5491 5489 5486 5484 5481 5478
5474 5476 5478 5480 5482 5484 5487 5488 5490 5492 5494 5496 5498 5499 5501 5502 5504 5504 5505 5506 5506 5506 5506 5505 5505 5504 5503 5502 5501 5500 5498 5496 5495 5493 5491 5489 5487 5485 5483 5481 5479 5476 5474 5471